Location: Helsinki
(60.1699°N, 24.9384°E)
Time: 23:56:43
(UTC+02:00)

A-11 Canister half - Pass Details

Date: 30 October 2020
Orbit: 1516 x 1684 km, 47.2° (Epoch: 26 November)

Event Time Altitude Azimuth Distance (km) Brightness Sun altitude
Rises 21:54:50 0° 240° (WSW) 4,927 11.8 -38.3°
Reaches altitude 10° 21:58:18 10° 233° (SW) 3,929 11.1 -38.6°
Enters shadow 22:00:47 19° 225° (SW) 3,278 10.6 -38.8°
Maximum altitude 22:07:12 38° 171° (S) 2,339 - -39.3°
Drops below altitude 10° 22:15:53 10° 108° (ESE) 3,830 - -39.9°
Sets 22:19:12 0° 101° (E) 4,792 - -40.2°
